Total_Precipitation_Accumulation
0.00 0.00 0.00 0.00 0.00 0.00 0.00 0.01 0.03 0.04 0.04 0.05 0.05 0.04 0.04 0.04 0.03 0.04 0.04 0.03 0.04 0.04 0.03 0.05 0.03 0.03 0.08 0.14 0.21 0.20 0.18 0.24 0.30 0.07 0.05 0.02 0.00 0.00 0.00 0.00 0.00 0.00 0.00
0.00 0.00 0.00 0.00 0.00 0.00 0.01 0.01 0.02 0.03 0.02 0.03 0.03 0.03 0.03 0.03 0.03 0.03 0.02 0.02 0.03 0.03 0.04 0.04 0.02 0.01 0.04 0.16 0.22 0.22 0.23 0.22 0.20 0.20 0.13 0.07 0.02 0.00 0.00 0.00 0.00 0.00 0.00
0.00 0.00 0.00 0.00 0.00 0.00 0.01 0.01 0.02 0.02 0.03 0.03 0.04 0.03 0.04 0.04 0.05 0.06 0.05 0.03 0.03 0.03 0.03 0.04 0.02 0.01 0.02 0.06 0.26 0.29 0.26 0.23 0.34 0.16 0.16 0.15 0.04 0.00 0.00 0.00 0.00 0.00 0.00
0.00 0.00 0.00 0.00 0.00 0.00 0.00 0.01 0.02 0.02 0.02 0.02 0.02 0.02 0.02 0.03 0.04 0.04 0.04 0.04 0.03 0.04 0.03 0.04 0.03 0.01 0.02 0.02 0.13 0.28 0.35 0.30 0.29 0.27 0.16 0.10 0.08 0.01 0.01 0.01 0.01 0.00 0.00
0.00 0.00 0.00 0.00 0.00 0.00 0.00 0.01 0.01 0.01 0.01 0.01 0.02 0.02 0.05 0.07 0.05 0.03 0.03 0.04 0.05 0.05 0.04 0.05 0.05 0.02 0.01 0.03 0.08 0.18 0.36 0.40 0.30 0.24 0.17 0.06 0.04 0.03 0.01 0.01 0.01 0.00 0.00
0.00 0.00 0.00 0.00 0.00 0.00 0.00 0.01 0.01 0.00 0.01 0.02 0.04 0.06 0.06 0.07 0.01 0.01 0.02 0.03 0.04 0.05 0.04 0.04 0.05 0.03 0.01 0.01 0.06 0.13 0.33 0.44 0.33 0.25 0.12 0.03 0.01 0.01 0.01 0.02 0.02 0.01 0.01
0.00 0.00 0.00 0.00 0.00 0.00 0.01 0.00 0.00 0.01 0.02 0.03 0.06 0.07 0.07 0.04 0.01 0.01 0.01 0.02 0.03 0.04 0.06 0.04 0.04 0.03 0.01 0.01 0.04 0.07 0.18 0.35 0.33 0.20 0.08 0.01 0.01 0.01 0.02 0.01 0.01 0.03 0.01
0.00 0.00 0.00 0.00 0.00 0.01 0.01 0.00 0.00 0.01 0.02 0.05 0.08 0.06 0.05 0.01 0.00 0.00 0.00 0.03 0.03 0.03 0.03 0.04 0.04 0.05 0.10 0.04 0.03 0.02 0.11 0.21 0.26 0.12 0.05 0.01 0.01 0.02 0.03 0.01 0.01 0.01 0.03
0.00 0.00 0.00 0.00 0.01 0.01 0.01 0.01 0.02 0.02 0.02 0.05 0.08 0.05 0.04 0.03 0.00 0.00 0.02 0.03 0.05 0.03 0.03 0.03 0.03 0.04 0.07 0.02 0.01 0.02 0.07 0.09 0.14 0.05 0.05 0.01 0.00 0.01 0.04 0.03 0.01 0.01 0.01
0.00 0.00 0.00 0.01 0.01 0.01 0.01 0.02 0.02 0.02 0.03 0.04 0.06 0.05 0.04 0.06 0.03 0.00 0.05 0.10 0.10 0.09 0.04 0.03 0.01 0.03 0.03 0.00 0.01 0.03 0.04 0.04 0.07 0.03 0.01 0.00 0.00 0.00 0.00 0.04 0.03 0.01 0.01
0.00 0.00 0.00 0.00 0.01 0.01 0.01 0.03 0.02 0.02 0.03 0.02 0.06 0.06 0.04 0.04 0.05 0.01 0.01 0.08 0.11 0.10 0.08 0.03 0.01 0.01 0.02 0.01 0.02 0.02 0.03 0.02 0.02 0.01 0.00 0.00 0.01 0.01 0.00 0.01 0.04 0.02 0.01
0.00 0.00 0.00 0.00 0.00 0.00 0.01 0.02 0.02 0.02 0.03 0.01 0.04 0.06 0.05 0.05 0.04 0.02 0.04 0.09 0.10 0.13 0.04 0.01 0.00 0.01 0.01 0.01 0.03 0.03 0.01 0.01 0.02 0.02 0.02 0.01 0.03 0.04 0.05 0.04 0.03 0.03 0.03
0.00 0.00 0.00 0.00 0.00 0.00 0.00 0.01 0.02 0.02 0.03 0.02 0.02 0.05 0.05 0.05 0.06 0.03 0.06 0.11 0.12 0.06 0.03 0.01 0.02 0.02 0.02 0.05 0.10 0.05 0.01 0.03 0.03 0.03 0.06 0.04 0.03 0.03 0.01 0.01 0.00 0.00 0.00
0.00 0.00 0.00 0.00 0.01 0.00 0.00 0.01 0.03 0.03 0.02 0.05 0.04 0.04 0.04 0.03 0.03 0.03 0.06 0.12 0.20 0.13 0.07 0.05 0.06 0.06 0.06 0.09 0.05 0.02 0.04 0.04 0.03 0.04 0.09 0.01 0.02 0.00 0.00 0.00 0.00 0.00 0.00
0.00 0.00 0.00 0.00 0.01 0.01 0.01 0.04 0.06 0.11 0.14 0.14 0.13 0.10 0.03 0.02 0.01 0.01 0.02 0.05 0.10 0.13 0.16 0.09 0.04 0.06 0.07 0.04 0.03 0.05 0.05 0.02 0.02 0.06 0.06 0.00 0.00 0.00 0.00 0.02 0.00 0.00 0.00
0.00 0.00 0.02 0.00 0.00 0.01 0.00 0.02 0.12 0.13 0.14 0.17 0.20 0.19 0.13 0.07 0.02 0.00 0.00 0.01 0.04 0.12 0.12 0.08 0.08 0.08 0.08 0.08 0.08 0.06 0.03 0.02 0.02 0.02 0.02 0.01 0.02 0.00 0.00 0.01 0.00 0.01 0.00
0.00 0.00 0.02 0.02 0.00 0.01 0.00 0.01 0.02 0.12 0.12 0.11 0.11 0.15 0.16 0.09 0.02 0.00 0.00 0.00 0.00 0.01 0.01 0.00 0.02 0.04 0.05 0.06 0.06 0.03 0.02 0.01 0.01 0.02 0.03 0.02 0.02 0.00 0.00 0.00 0.00 0.00 0.01
0.00 0.00 0.01 0.02 0.02 0.01 0.01 0.03 0.04 0.10 0.16 0.14 0.13 0.10 0.09 0.10 0.03 0.00 0.00 0.00 0.00 0.00 0.00 0.00 0.00 0.00 0.00 0.00 0.00 0.01 0.01 0.01 0.02 0.03 0.03 0.01 0.00 0.00 0.00 0.00 0.00 0.00 0.01
0.00 0.00 0.00 0.02 0.03 0.05 0.02 0.03 0.05 0.07 0.13 0.19 0.13 0.11 0.10 0.06 0.04 0.02 0.01 0.01 0.02 0.01 0.00 0.00 0.00 0.00 0.00 0.00 0.01 0.01 0.01 0.00 0.01 0.00 0.01 0.03 0.02 0.00 0.00 0.00 0.00 0.00 0.01
0.01 0.00 0.00 0.01 0.02 0.02 0.03 0.03 0.04 0.07 0.09 0.13 0.17 0.26 0.21 0.13 0.08 0.06 0.04 0.03 0.02 0.03 0.03 0.02 0.01 0.00 0.00 0.00 0.00 0.00 0.00 0.00 0.00 0.00 0.00 0.01 0.02 0.01 0.00 0.00 0.00 0.00 0.00
0.01 0.02 0.01 0.00 0.00 0.01 0.02 0.04 0.04 0.07 0.10 0.14 0.21 0.34 0.38 0.33 0.30 0.24 0.19 0.13 0.09 0.05 0.03 0.02 0.01 0.01 0.01 0.01 0.01 0.00 0.00 0.00 0.00 0.00 0.00 0.00 0.01 0.02 0.01 0.01 0.00 0.00 0.00
0.00 0.01 0.01 0.00 0.00 0.00 0.01 0.02 0.03 0.03 0.07 0.10 0.12 0.17 0.31 0.29 0.33 0.32 0.29 0.27 0.23 0.19 0.14 0.08 0.03 0.02 0.01 0.00 0.00 0.00 0.00 0.00 0.00 0.00 0.00 0.00 0.01 0.06 0.08 0.05 0.03 0.01 0.01
0.00 0.00 0.00 0.01 0.00 0.01 0.01 0.00 0.01 0.01 0.02 0.05 0.07 0.07 0.11 0.22 0.22 0.25 0.26 0.26 0.26 0.28 0.27 0.19 0.11 0.06 0.04 0.02 0.01 0.00 0.00 0.00 0.00 0.00 0.00 0.01 0.01 0.01 0.03 0.06 0.06 0.02 0.02
0.00 0.00 0.00 0.00 0.01 0.00 0.00 0.00 0.00 0.02 0.02 0.01 0.02 0.02 0.03 0.07 0.18 0.21 0.21 0.20 0.19 0.22 0.28 0.33 0.24 0.15 0.10 0.06 0.05 0.03 0.02 0.01 0.00 0.00 0.00 0.01 0.01 0.01 0.00 0.01 0.05 0.08 0.07
0.00 0.00 0.00 0.00 0.00 0.00 0.01 0.00 0.00 0.00 0.00 0.01 0.01 0.01 0.01 0.01 0.05 0.14 0.24 0.20 0.19 0.18 0.20 0.19 0.26 0.26 0.18 0.16 0.17 0.13 0.11 0.08 0.04 0.02 0.01 0.00 0.02 0.02 0.01 0.02 0.03 0.05 0.09
0.00 0.00 0.00 0.00 0.00 0.00 0.00 0.00 0.00 0.00 0.00 0.00 0.00 0.00 0.00 0.00 0.01 0.03 0.05 0.12 0.14 0.16 0.20 0.20 0.21 0.25 0.22 0.19 0.25 0.24 0.17 0.12 0.09 0.08 0.06 0.05 0.04 0.07 0.05 0.03 0.03 0.03 0.05